Date String (YYYY-MM-DD hh:mm:ss) UTC,Instrument flags,absolute air pressure of the measurement (hPa),sample flow rate (lpm),inlet stack bypass flow (lpm),air temperature of the measurement (°C),ambient temperature measured by the external sensor (°C),aerosol sample conditioner tube jacket temperature (°C),OPC LED temperature (°C),internal box temperature (°C),relative humidity of the measurement (%),span deviation,mass concentration of particles derived from Lorenz-Mie calculation of OPC scattering (μg/m³),mass concentration of particles derived from Lorenz-Mie calculation of OPC scattering (μg/m³),mass concentration of particles derived from Lorenz-Mie calculation of OPC scattering (μg/m³)
DateTimeUTC,F1_M11,P_M11,Q1_M11,Q2_M11,T1_M11,T2_M11,T3_M11,T4_M11,T5_M11,U1_M11,ZSPAN_M11,X0_M11,X2_M11,X1_M11
2024-02-28 06:00:00,SystemResetWarning,0826.0,5.00,000.00,018.6,018.0,000.0,027.0,020.1,04.5,0000.0,0003.42,0000.83,0000.37
2024-02-28 06:01:00,SystemResetWarning,0825.9,5.01,000.00,018.5,017.8,000.0,027.0,020.0,04.6,0000.0,0003.40,0000.81,0000.37
2024-02-28 06:02:00,SystemResetWarning,0825.9,5.01,000.00,018.4,017.7,000.0,027.1,020.0,04.8,0000.0,0003.43,0000.79,0000.38
2024-02-28 06:03:00,SystemResetWarning,0826.0,5.00,000.00,018.4,017.5,000.0,027.1,020.0,04.8,0000.0,0002.73,0000.78,0000.39
2024-02-28 06:04:00,SystemResetWarning,0825.9,5.01,000.00,018.4,017.7,000.0,027.1,020.1,04.7,0000.0,0002.56,0000.77,0000.41
2024-02-28 06:05:00,SystemResetWarning,0825.9,5.00,000.00,018.6,018.4,000.0,027.2,020.6,04.8,0000.0,0002.05,0000.78,0000.42
2024-02-28 06:06:00,SystemResetWarning,0825.8,5.00,000.00,018.8,019.2,000.0,027.3,021.1,04.6,0000.0,0002.42,0000.80,0000.42
2024-02-28 06:07:00,SystemResetWarning,0825.9,4.99,000.00,018.9,019.1,000.0,027.2,021.0,04.6,0000.0,0002.66,0000.80,0000.42
2024-02-28 06:08:00,SystemResetWarning,0825.9,4.99,000.00,018.9,018.9,000.0,027.2,020.8,04.5,0000.0,0003.35,0000.80,0000.42
2024-02-28 06:09:00,SystemResetWarning,0825.9,5.01,000.00,018.8,018.7,000.0,027.1,020.6,04.6,0000.0,0003.34,0000.84,0000.43
2024-02-28 06:10:00,SystemResetWarning,0825.9,5.00,000.00,018.8,018.4,000.0,027.1,020.4,04.7,0000.0,0003.05,0000.78,0000.43
2024-02-28 06:11:00,SystemResetWarning,0825.9,5.00,000.00,018.7,018.2,000.0,027.1,020.2,04.8,0000.0,0003.05,0000.78,0000.43
2024-02-28 06:12:00,SystemResetWarning,0825.9,5.00,000.00,018.6,018.0,000.0,027.0,020.1,04.8,0000.0,0003.10,0000.81,0000.44
2024-02-28 06:13:00,SystemResetWarning,0825.9,4.99,000.00,018.5,017.8,000.0,027.0,020.0,04.9,0000.0,0003.32,0000.84,0000.44
2024-02-28 06:14:00,SystemResetWarning,0825.9,5.00,000.00,018.5,017.6,000.0,027.0,020.0,04.9,0000.0,0004.21,0000.86,0000.44
2024-02-28 06:15:00,SystemResetWarning,0825.7,5.00,000.00,018.4,017.5,000.0,027.1,020.0,04.8,0000.0,0005.10,0000.93,0000.45
2024-02-28 06:16:00,SystemResetWarning,0825.8,5.02,000.00,018.5,017.9,000.0,027.1,020.3,04.8,0000.0,0005.84,0000.94,0000.45
2024-02-28 06:17:00,SystemResetWarning,0825.7,5.00,000.00,018.6,018.6,000.0,027.2,020.7,04.8,0000.0,0005.84,0000.96,0000.46
2024-02-28 06:18:00,SystemResetWarning,0825.8,5.00,000.00,018.8,019.1,000.0,027.2,021.0,04.9,0000.0,0005.93,0000.99,0000.46
2024-02-28 06:19:00,SystemResetWarning,0825.4,4.99,000.00,018.8,018.8,000.0,027.2,020.7,04.8,0000.0,0005.04,0001.00,0000.46
2024-02-28 06:20:00,SystemResetWarning,0825.5,5.00,000.00,018.8,018.5,000.0,027.1,020.4,04.6,0000.0,0005.68,0000.97,0000.46
2024-02-28 06:21:00,SystemResetWarning,0825.5,5.00,000.00,018.7,018.3,000.0,027.1,020.3,04.7,0000.0,0005.79,0000.99,0000.46
2024-02-28 06:22:00,SystemResetWarning,0825.5,5.00,000.00,018.6,018.0,000.0,027.0,020.1,04.7,0000.0,0006.67,0001.00,0000.47
2024-02-28 06:23:00,SystemResetWarning,0825.4,5.00,000.00,018.5,017.8,000.0,027.0,020.0,04.8,0000.0,0006.80,0001.03,0000.47
2024-02-28 06:24:00,SystemResetWarning,0825.4,5.00,000.00,018.4,017.6,000.0,027.1,020.0,04.7,0000.0,0006.62,0001.01,0000.48
2024-02-28 06:25:00,SystemResetWarning,0825.5,5.00,000.00,018.5,017.8,000.0,027.1,020.2,04.6,0000.0,0005.94,0001.03,0000.49
2024-02-28 06:26:00,SystemResetWarning,0825.4,5.00,000.00,018.7,018.6,000.0,027.2,020.7,04.6,0000.0,0005.29,0001.04,0000.49
2024-02-28 06:27:00,SystemResetWarning,0825.4,4.98,000.00,018.9,019.2,000.0,027.3,021.1,04.6,0000.0,0004.60,0001.05,0000.50
2024-02-28 06:28:00,SystemResetWarning,0825.4,4.99,000.00,018.9,018.9,000.0,027.2,020.8,04.6,0000.0,0004.15,0001.04,0000.50
2024-02-28 06:29:00,SystemResetWarning,0825.4,5.01,000.00,018.8,018.6,000.0,027.1,020.6,04.6,0000.0,0003.88,0000.98,0000.51
2024-02-28 06:30:00,SystemResetWarning,0825.2,5.00,000.00,018.7,018.4,000.0,027.1,020.3,04.6,0000.0,0003.81,0000.97,0000.51
2024-02-28 06:31:00,SystemResetWarning,0825.3,5.00,000.00,018.6,018.1,000.0,027.1,020.1,04.4,0000.0,0003.63,0000.99,0000.51
2024-02-28 06:32:00,SystemResetWarning,0825.3,4.99,000.00,018.5,017.9,000.0,027.1,020.0,04.5,0000.0,0003.58,0000.99,0000.51
2024-02-28 06:33:00,SystemResetWarning,0825.1,5.01,000.00,018.5,017.7,000.0,027.1,020.0,04.6,0000.0,0002.74,0001.01,0000.52
2024-02-28 06:34:00,SystemResetWarning,0825.0,5.01,000.00,018.5,017.8,000.0,027.2,020.2,04.6,0000.0,0002.55,0000.98,0000.52
2024-02-28 06:35:00,SystemResetWarning,0825.2,5.00,000.00,018.6,018.5,000.0,027.2,020.6,04.3,0000.0,0002.50,0000.96,0000.52
2024-02-28 06:36:00,SystemResetWarning,0825.4,4.99,000.00,018.8,019.2,000.0,027.3,021.1,04.4,0000.0,0002.66,0000.94,0000.51
2024-02-28 06:37:00,SystemResetWarning,0825.4,4.99,000.00,019.0,019.4,000.0,027.3,021.2,04.5,0000.0,0003.04,0000.92,0000.51
2024-02-28 06:38:00,SystemResetWarning,0825.4,5.00,000.00,019.0,019.1,000.0,027.2,021.0,04.5,0000.0,0002.92,0000.89,0000.51
2024-02-28 06:39:00,SystemResetWarning,0825.6,5.00,000.00,018.9,018.8,000.0,027.2,020.7,04.7,0000.0,0002.81,0000.87,0000.51
2024-02-28 06:40:00,SystemResetWarning,0825.6,5.00,000.00,018.9,018.5,000.0,027.2,020.5,05.0,0000.0,0002.86,0000.89,0000.50
2024-02-28 06:41:00,SystemResetWarning,0825.7,4.99,000.00,018.8,018.2,000.0,027.1,020.3,04.9,0000.0,0002.92,0000.89,0000.50
2024-02-28 06:42:00,SystemResetWarning,0825.8,5.00,000.00,018.7,018.0,000.0,027.1,020.1,04.9,0000.0,0002.59,0000.87,0000.52
2024-02-28 06:43:00,SystemResetWarning,0826.0,5.00,000.00,018.6,017.8,000.0,027.1,020.0,05.3,0000.0,0002.66,0000.86,0000.52
2024-02-28 06:44:00,SystemResetWarning,0825.9,5.01,000.00,018.6,017.9,000.0,027.2,020.2,06.3,0000.0,0002.62,0000.83,0000.51
2024-02-28 06:45:00,SystemResetWarning,0825.7,5.01,000.00,018.7,018.5,000.0,027.3,020.7,07.0,0000.0,0002.84,0000.84,0000.51
2024-02-28 06:46:00,SystemResetWarning,0825.8,5.00,000.00,018.9,019.2,000.0,027.3,021.1,05.7,0000.0,0003.06,0000.88,0000.52
2024-02-28 06:47:00,SystemResetWarning,0825.9,4.98,000.00,019.0,019.1,000.0,027.3,021.0,06.2,0000.0,0004.43,0001.00,0000.53
2024-02-28 06:48:00,SystemResetWarning,0825.9,5.00,000.00,019.0,018.9,000.0,027.2,020.8,06.7,0000.0,0004.56,0001.04,0000.53
2024-02-28 06:49:00,SystemResetWarning,0825.9,5.00,000.00,018.9,018.6,000.0,027.2,020.5,06.4,0000.0,0004.54,0001.03,0000.53
2024-02-28 06:50:00,SystemResetWarning,0825.9,5.00,000.00,018.8,018.3,000.0,027.2,020.3,06.8,0000.0,0004.62,0001.04,0000.53
2024-02-28 06:51:00,SystemResetWarning,0825.8,5.00,000.00,018.7,018.1,000.0,027.1,020.2,06.7,0000.0,0004.54,0001.02,0000.53
2024-02-28 06:52:00,SystemResetWarning,0825.8,5.00,000.00,018.6,017.9,000.0,027.1,020.0,05.5,0000.0,0004.55,0001.04,0000.54
2024-02-28 06:53:00,SystemResetWarning,0825.8,5.01,000.00,018.5,017.7,000.0,027.1,020.0,04.9,0000.0,0004.43,0001.04,0000.55
2024-02-28 06:54:00,SystemResetWarning,0825.8,5.01,000.00,018.6,018.1,000.0,027.2,020.4,04.9,0000.0,0004.23,0001.05,0000.56
2024-02-28 06:55:00,SystemResetWarning,0825.9,5.00,000.00,018.8,018.8,000.0,027.3,020.9,04.9,0000.0,0004.30,0001.09,0000.57
2024-02-28 06:56:00,SystemResetWarning,0826.0,5.00,000.00,019.0,019.2,000.0,027.3,021.1,05.9,0000.0,0004.21,0001.13,0000.59
2024-02-28 06:57:00,SystemResetWarning,0826.0,4.98,000.00,019.0,018.9,000.0,027.3,020.9,07.4,0000.0,0005.06,0001.17,0000.62
2024-02-28 06:58:00,SystemResetWarning,0825.9,5.00,000.00,018.9,018.7,000.0,027.2,020.6,05.5,0000.0,0003.91,0001.15,0000.66
2024-02-28 06:59:00,SystemResetWarning,0825.9,5.00,000.00,018.8,018.4,000.0,027.2,020.4,04.9,0000.0,0003.06,0001.12,0000.70
